Temperature
14 14 15 15 16 16 18 20 22 22 22 22 21 21 21 21 21 19 17 17 17 17 17 17 17 17 17 17 17 17 17 17 17 17 17 17 17 17 17 17 17 16 16 16 16 16 16 16 16
13 14 15 16 16 16 19 20 21 21 20 20 20 20 21 21 19 18 17 17 17 17 17 17 17 17 17 17 17 17 17 17 17 17 17 17 17 17 17 16 16 16 16 16 16 16 16 16 16
13 14 15 16 16 17 20 20 20 20 19 19 20 20 20 19 18 17 16 16 16 16 16 16 16 16 16 17 17 17 17 17 16 16 16 16 16 17 16 16 16 16 16 16 16 16 16 16 16
13 14 15 15 16 18 20 19 19 19 19 19 19 19 19 18 17 16 16 16 16 16 16 16 16 16 16 16 16 16 16 16 16 16 16 16 16 16 16 16 16 16 16 16 16 16 16 16 16
13 14 15 15 17 18 19 19 19 18 18 19 18 18 17 17 16 16 16 16 15 15 15 16 16 16 16 16 16 16 16 16 16 16 16 16 16 16 16 16 16 15 15 16 15 15 15 16 16
14 15 14 15 17 18 19 19 18 18 18 18 18 17 17 16 16 15 15 15 15 15 15 15 15 16 16 16 16 16 16 16 16 16 16 16 16 16 16 16 15 15 15 15 15 15 15 15 15
14 14 14 16 17 18 18 17 17 17 17 17 17 17 16 15 15 15 14 14 15 15 15 15 15 15 15 16 16 16 16 16 16 16 16 16 16 16 15 15 16 15 15 15 15 15 15 15 15
13 14 15 16 16 17 17 16 16 16 16 16 16 15 15 14 14 14 14 14 14 14 14 14 15 15 15 15 15 15 15 15 16 16 16 16 15 15 15 15 15 15 15 15 15 15 15 15 15
12 13 13 15 16 16 16 15 15 15 15 15 15 14 14 14 13 13 13 13 13 13 14 14 14 14 14 15 15 15 15 15 15 15 15 15 15 15 15 15 15 15 15 15 15 15 15 15 15
13 12 14 15 15 15 15 14 14 14 14 14 14 14 13 13 13 13 12 12 13 13 13 13 14 14 14 14 15 15 15 15 15 15 15 15 15 15 15 15 15 15 15 15 15 15 15 15 15
13 13 14 14 14 13 13 14 14 14 13 13 13 13 12 12 12 12 12 12 12 12 12 13 13 13 14 14 14 14 14 15 15 15 15 15 15 15 14 15 15 15 14 14 14 14 14 14 15
13 13 14 13 13 12 13 13 13 13 13 12 12 12 12 12 11 11 11 11 11 11 12 12 13 13 13 13 14 14 14 14 14 14 15 14 15 14 14 14 15 14 14 14 15 14 14 14 14
13 13 13 12 12 12 12 12 12 12 12 11 11 11 11 11 11 11 11 11 11 11 12 12 12 13 13 13 13 13 14 14 14 14 14 14 14 14 14 14 14 14 14 14 14 14 14 14 14
13 12 12 12 12 12 12 12 12 11 11 11 11 11 11 11 10 10 10 10 10 10 11 11 12 12 12 13 13 13 13 13 14 14 14 14 14 14 14 14 14 14 14 14 14 14 14 14 14
12 11 11 12 12 12 12 11 11 11 11 11 11 11 10 10 10 10 10 10 10 10 10 11 11 12 12 12 12 13 13 13 13 13 13 14 14 14 14 14 14 14 14 14 14 14 13 13 14
12 11 11 12 12 12 11 10 12 12 11 11 10 10 10 10 10 9 9 9 9 10 10 10 11 11 11 12 12 12 12 13 13 13 13 13 14 14 14 13 13 14 14 13 13 13 13 13 13
11 10 11 11 12 12 11 10 11 11 11 11 10 10 10 9 9 9 9 9 9 9 10 10 10 10 11 11 11 12 12 12 12 13 13 13 13 13 13 13 13 13 13 13 13 13 13 13 13
10 10 11 11 12 11 11 10 11 11 11 10 10 10 9 9 9 8 8 9 9 9 9 9 10 10 10 11 11 11 11 12 12 12 12 13 13 13 13 13 13 13 13 13 13 13 13 13 13
11 10 10 11 12 11 10 11 11 11 11 10 10 9 9 8 8 8 8 8 8 8 9 9 9 9 10 10 10 11 11 11 11 12 12 12 12 12 13 13 13 13 13 13 13 13 13 13 13
10 10 10 11 11 11 10 10 11 11 10 10 10 9 9 8 8 8 8 8 8 8 8 8 8 9 9 9 10 10 10 11 11 11 11 11 12 12 12 12 12 12 12 12 12 12 12 12 12
10 9 10 10 10 11 10 10 11 11 11 10 10 9 9 8 8 7 7 7 7 7 7 8 8 8 9 9 9 9 10 10 10 10 11 11 11 11 12 12 12 12 12 12 12 12 12 12 12
9 10 10 9 8 9 10 8 10 10 10 10 10 9 8 8 7 7 7 7 7 7 7 7 7 8 8 8 9 9 9 9 10 10 10 11 11 11 11 11 11 11 11 12 12 12 11 11 11
9 10 9 9 8 8 9 9 10 10 9 9 9 9 8 8 7 7 7 6 6 6 7 7 7 7 8 8 8 9 9 9 9 10 10 10 10 11 11 11 11 11 11 11 11 11 11 11 11
9 9 9 9 8 8 10 9 9 9 9 9 9 9 8 7 7 7 6 6 6 6 6 6 7 7 7 8 8 8 8 9 9 9 9 10 10 10 10 10 11 11 11 11 11 11 11 11 10
9 7 8 8 8 9 11 10 9 10 9 9 9 8 8 7 7 6 6 6 5 5 5 5 6 6 7 7 7 8 8 8 8 9 9 9 9 9 10 10 10 10 10 10 10 10 10 10 10
8 8 7 8 8 9 10 9 9 10 9 9 9 8 8 7 6 6 6 5 5 5 5 5 5 6 6 6 7 7 7 7 8 8 8 9 9 9 9 9 10 10 10 10 10 9 10 10 9
8 8 8 7 8 8 9 10 9 10 9 9 8 8 7 7 6 6 5 5 5 5 5 5 5 5 6 6 6 6 7 7 7 8 8 8 8 8 8 8 8 9 9 9 9 9 9 9 9
8 8 7 7 8 8 10 10 9 8 8 8 8 7 7 6 6 5 5 5 4 4 4 5 5 5 5 6 6 6 6 6 7 7 7 7 7 8 8 8 8 8 8 8 8 8 8 8 8
8 8 8 7 7 7 8 9 10 9 8 8 7 7 7 6 6 5 5 4 4 4 4 4 4 5 5 5 5 5 6 6 6 6 7 7 7 7 7 7 7 7 7 7 7 7 7 7 8
8 8 8 7 7 7 7 8 10 9 9 8 8 7 7 6 5 5 5 4 4 4 4 4 4 4 4 5 5 5 5 5 6 6 6 6 6 6 7 7 7 7 7 7 7 7 7 7 7
Wind_Speed
12 11 7 3 3 5 8 7 5 1 2 5 7 5 7 5 4 6 5 7 7 5 8 9 7 7 8 8 11 13 14 13 13 14 14 14 14 13 13 12 12 12 12 12 12 12 12 13 14
11 6 4 3 4 6 6 7 4 2 6 6 5 5 4 3 5 6 5 7 7 5 6 8 7 6 7 8 9 12 14 14 14 13 14 14 14 14 13 13 12 12 12 12 12 12 13 13 13
10 7 4 4 5 5 3 1 3 5 6 3 2 3 4 3 5 4 5 7 6 6 5 7 8 5 6 7 8 10 13 14 14 14 14 14 14 14 14 13 12 12 12 13 13 13 13 13 13
4 3 4 5 9 7 4 4 6 4 2 1 2 2 1 3 4 5 7 8 7 5 5 5 7 6 5 6 8 8 11 13 14 14 13 14 14 14 14 13 12 13 13 14 14 13 13 13 12
4 3 5 6 9 7 2 3 5 2 2 1 2 4 2 3 6 6 7 7 7 5 3 2 4 5 6 6 7 9 9 12 13 14 13 13 14 14 13 13 13 14 14 15 14 14 13 12 11
3 4 4 7 8 6 1 3 2 2 3 3 2 4 2 2 5 6 6 6 6 5 4 0 4 5 6 7 8 8 10 11 13 14 14 13 14 14 13 13 13 14 15 15 15 14 13 12 11
4 3 5 6 6 3 1 3 1 2 4 4 2 4 1 3 5 6 6 6 5 4 4 2 3 5 6 7 9 10 10 11 12 14 14 14 14 14 14 14 14 15 15 15 15 14 13 11 10
4 3 5 6 6 2 3 3 3 4 4 4 3 3 1 3 4 5 5 5 5 4 3 3 2 3 5 6 9 11 11 12 12 13 14 14 14 14 15 15 15 15 15 15 15 14 13 12 11
4 3 4 4 3 2 4 2 3 4 4 4 4 5 4 4 6 5 5 4 5 5 3 2 2 2 3 5 8 10 11 12 12 12 13 13 12 13 14 15 16 16 16 16 15 14 13 12 10
3 3 3 4 5 4 3 3 4 3 5 5 4 4 4 4 5 5 5 5 5 5 5 3 2 2 2 4 5 7 10 10 11 11 13 13 12 13 14 16 17 17 17 16 15 13 13 12 9
3 4 3 4 6 5 4 4 5 5 6 4 5 6 6 5 5 5 6 6 6 5 5 4 4 3 2 2 2 4 5 7 10 12 13 13 11 10 11 11 13 15 15 13 13 12 11 11 10
4 5 3 2 3 4 5 5 5 6 6 6 6 6 5 6 5 6 6 6 6 6 6 5 5 4 3 2 2 3 3 4 5 9 12 9 6 6 7 7 11 12 12 10 11 9 11 11 11
6 4 2 2 2 4 5 6 6 6 6 7 6 6 6 6 6 6 6 6 6 6 6 5 5 5 3 2 2 3 3 3 4 6 9 9 6 7 6 6 9 10 11 10 8 8 8 8 9
3 3 4 4 5 5 5 6 5 5 4 4 5 5 5 5 5 6 6 6 6 6 6 6 5 5 4 3 3 3 3 3 3 4 7 9 7 6 6 7 7 8 9 9 9 8 6 6 6
2 3 5 5 5 2 3 6 5 4 3 4 4 5 5 5 5 5 5 6 6 6 6 6 5 4 4 4 3 3 3 3 3 3 6 8 8 7 6 6 7 7 10 9 8 7 5 5 5
4 4 3 3 3 2 3 6 2 1 2 4 4 4 4 4 5 4 5 5 5 5 6 5 5 4 4 3 3 3 2 2 3 3 4 6 7 7 6 6 6 7 8 7 6 6 5 5 4
4 4 3 1 3 3 4 6 3 1 2 4 4 3 4 5 5 5 5 5 5 5 5 5 4 4 4 3 3 3 3 3 2 2 3 4 6 7 6 6 6 7 6 6 6 5 5 5 5
3 3 3 2 2 3 5 7 4 1 2 4 4 3 4 5 6 6 6 5 5 5 5 4 4 4 3 2 2 2 3 3 3 2 3 4 4 5 5 5 6 6 6 6 6 6 5 5 5
4 3 4 3 1 3 6 8 5 1 1 3 4 4 5 5 5 6 6 6 5 5 5 5 4 4 2 2 2 2 3 3 3 3 4 5 5 5 4 5 6 6 6 7 7 6 6 6 5
4 3 3 3 2 5 7 8 5 3 2 1 2 4 5 6 7 7 7 6 6 5 5 4 4 4 3 2 2 2 3 3 3 3 3 4 5 6 5 5 6 6 6 7 7 6 5 5 6
3 3 3 3 5 6 6 5 4 4 3 1 2 3 4 6 6 7 6 6 6 5 5 5 5 5 3 2 1 2 2 2 2 3 3 3 4 5 4 5 6 6 6 7 7 7 7 6 6
2 2 3 4 4 3 3 4 3 3 1 1 3 4 5 5 6 6 6 7 6 5 5 5 5 5 3 2 2 2 2 3 4 3 3 3 4 4 4 5 5 6 6 6 7 7 6 6 6
1 4 4 5 4 4 4 4 3 3 1 2 3 4 5 5 5 6 6 6 6 6 5 5 5 5 4 3 2 2 3 3 3 2 3 3 3 4 4 4 4 5 5 6 6 6 7 6 6
2 3 4 3 2 4 4 4 3 1 1 2 2 4 5 5 6 6 7 7 7 7 7 6 5 6 5 4 2 2 3 3 3 3 3 2 2 3 4 4 4 5 5 6 6 7 7 7 7
1 2 1 1 2 4 2 2 2 3 3 2 2 3 4 5 6 7 8 8 8 8 7 7 6 5 5 4 4 2 3 3 3 3 3 3 3 3 4 4 4 4 5 5 5 6 7 7 7
2 1 2 2 2 1 1 3 2 5 5 4 3 3 4 5 6 6 7 8 8 9 8 8 7 6 5 5 4 3 3 2 2 1 2 2 3 3 4 5 5 5 5 5 5 6 6 6 7
1 1 1 2 4 3 3 3 3 4 4 3 3 4 5 5 6 6 7 7 8 8 8 8 8 7 6 5 4 4 3 2 2 2 1 1 2 2 3 3 4 4 4 5 6 5 6 6 7
2 2 1 2 3 3 3 2 2 2 1 1 2 3 4 5 6 6 6 7 7 7 7 8 8 8 6 6 5 4 4 3 2 1 2 2 2 2 3 4 4 4 4 4 5 5 6 7 7
2 2 2 3 3 2 3 1 2 3 2 1 1 2 3 4 5 5 5 6 6 7 8 8 8 8 7 6 6 5 5 5 4 3 3 2 2 3 3 4 4 3 4 5 5 5 6 7 7
2 2 2 2 3 3 3 3 2 4 3 2 1 2 3 3 4 4 5 5 6 7 7 8 8 8 7 7 6 6 6 6 5 5 4 3 2 2 3 3 3 3 3 3 4 5 6 7 7
Wind_Direction
297 272 253 238 232 229 237 242 258 294 22 28 19 1 347 344 10 82 99 34 36 69 105 116 122 140 147 153 162 163 165 166 166 168 166 164 162 159 155 151 149 146 143 140 135 129 125 119 114
291 272 250 230 234 230 232 228 246 35 50 29 15 356 334 352 46 77 61 26 29 53 100 117 119 136 152 157 160 169 171 172 172 171 172 170 168 165 162 159 158 155 149 144 137 130 125 123 121
276 261 240 222 229 236 261 68 81 54 63 42 5 333 315 359 37 57 44 25 26 37 66 116 128 136 153 163 163 172 177 176 177 176 176 176 173 171 169 168 165 159 151 145 140 133 130 127 126
260 234 245 243 240 250 292 18 52 35 49 38 331 297 6 24 30 40 33 22 21 30 39 103 131 148 155 168 174 174 182 182 181 181 180 181 178 176 174 173 168 160 152 146 142 139 136 133 132
250 241 227 234 244 254 285 34 50 17 315 280 278 281 314 46 66 52 31 18 13 9 24 116 146 165 168 171 180 183 185 189 187 185 185 184 183 179 176 175 167 160 154 150 148 146 143 142 142
242 242 236 234 242 242 245 54 41 294 291 293 279 275 284 64 50 34 25 9 4 1 352 293 182 181 186 184 188 189 192 193 192 189 189 188 187 181 177 174 169 165 160 157 154 152 150 150 151
258 244 248 256 252 236 145 64 2 289 288 299 326 297 263 50 32 15 12 1 350 357 351 344 220 199 198 199 197 196 197 199 198 194 191 190 188 183 179 174 171 169 166 163 161 160 159 159 158
289 280 258 261 265 268 60 46 357 322 301 338 348 287 275 16 12 3 350 345 335 330 336 331 313 245 214 208 208 204 202 203 204 200 194 191 187 184 181 176 174 173 170 167 166 167 166 165 166
283 260 253 265 286 2 60 27 328 333 313 307 296 288 297 329 336 334 327 327 323 317 308 295 293 299 261 225 217 208 206 205 205 203 197 190 187 185 184 183 179 177 173 171 171 171 170 167 172
240 246 266 353 6 9 20 343 321 306 283 283 295 313 313 327 323 312 312 310 308 311 309 304 293 271 272 251 225 215 211 205 203 202 196 195 193 190 185 183 180 179 175 173 173 173 171 170 176
224 249 302 1 10 358 336 309 301 286 279 298 320 329 328 329 327 320 317 310 303 301 307 314 303 271 246 242 234 222 216 204 203 204 196 194 191 187 179 170 174 176 174 173 174 171 179 188 185
230 254 283 317 354 323 300 296 295 277 290 321 322 323 325 322 316 313 309 309 307 308 309 314 309 290 260 244 237 234 218 205 202 204 198 190 183 177 173 168 173 176 179 178 174 181 192 201 195
233 248 277 316 299 279 277 276 281 279 305 311 315 311 300 298 302 303 305 305 305 305 303 303 305 297 277 254 238 245 230 210 206 202 201 189 180 180 174 174 173 178 181 181 178 188 194 198 197
253 279 278 267 256 257 266 274 267 276 286 298 305 301 299 301 308 309 309 304 303 302 301 301 294 293 277 256 244 244 244 220 216 206 203 190 184 177 177 179 176 178 181 183 185 194 195 196 192
260 256 257 232 227 237 291 271 243 251 270 291 302 306 310 320 320 308 309 311 308 307 305 306 293 284 271 257 253 258 255 231 212 211 205 196 187 181 177 182 180 182 182 183 187 197 196 195 190
222 228 232 184 191 177 237 269 267 192 278 293 299 311 321 331 330 331 328 320 316 311 309 315 310 300 283 257 250 258 267 247 223 215 207 202 195 186 180 182 185 186 180 181 185 191 188 190 185
210 237 240 161 189 196 231 271 274 305 294 295 303 319 330 332 339 336 330 326 321 317 314 312 312 299 286 267 249 246 254 240 233 224 205 196 198 194 186 188 191 185 181 182 188 188 181 184 181
237 253 251 231 210 248 260 271 277 301 317 307 314 334 336 337 339 339 332 328 329 324 319 312 309 304 298 279 259 242 250 239 220 215 214 193 194 193 190 192 194 187 183 185 186 186 184 182 178
293 275 273 286 285 286 266 271 267 242 283 315 334 351 347 340 338 342 342 338 335 336 329 326 316 304 298 273 246 232 239 236 221 212 209 199 193 187 187 194 194 194 193 190 189 185 184 185 173
273 274 286 305 325 296 273 274 260 183 180 288 353 348 341 343 344 341 341 341 337 334 331 326 319 307 292 270 260 244 243 237 221 223 216 207 195 190 193 195 198 201 197 191 190 183 186 189 178
283 283 300 320 313 265 268 274 203 166 165 93 20 355 354 350 340 341 345 344 336 334 333 328 320 310 295 277 268 262 248 248 237 224 215 219 210 195 192 203 203 206 200 199 193 188 185 190 191
282 338 334 317 309 282 275 286 221 168 179 8 7 3 357 352 351 350 350 348 343 335 329 327 324 320 314 287 249 233 230 236 238 223 212 212 214 198 196 206 207 208 202 195 195 193 191 186 194
308 334 301 281 280 289 242 244 265 133 259 318 356 358 1 4 0 357 358 355 352 351 342 328 330 337 337 320 276 262 249 240 242 228 201 210 210 204 201 202 200 207 203 197 194 195 195 196 199
306 301 272 242 268 268 225 208 276 156 243 317 354 1 1 5 4 7 8 7 6 4 354 352 345 339 342 337 337 312 275 250 231 229 211 217 217 209 207 210 204 211 207 201 200 199 199 204 207
346 342 334 258 229 244 158 186 243 91 84 61 0 348 2 7 6 8 6 4 3 360 356 356 354 347 349 353 347 332 306 272 236 226 215 220 224 219 216 215 211 217 216 207 204 206 207 209 211
264 298 342 302 288 306 218 213 145 84 77 61 32 15 14 8 7 9 4 2 0 356 354 358 360 358 358 359 351 342 326 312 292 258 238 237 236 231 220 218 215 220 222 220 210 210 213 215 220
305 278 350 293 286 276 239 178 122 77 70 46 26 21 11 9 8 7 5 5 1 356 356 359 0 2 4 2 358 356 347 331 315 314 288 272 266 253 231 223 219 221 218 220 215 219 220 220 222
262 319 299 266 302 288 264 214 198 157 166 22 17 16 7 3 3 5 6 6 1 358 357 3 6 5 6 7 5 357 352 345 333 328 310 293 273 253 241 231 224 223 221 224 226 227 226 227 230
184 218 257 270 275 283 295 301 50 117 110 62 11 9 8 358 358 1 4 7 6 6 5 7 8 7 7 6 4 4 1 356 356 350 334 309 272 253 245 233 222 228 232 232 230 231 231 232 236
246 232 218 246 277 261 274 266 78 94 84 68 28 12 20 16 5 3 6 10 11 8 5 6 6 5 3 3 3 2 -0 1 357 349 335 324 302 277 259 251 233 243 247 244 240 240 240 238 238
Height
1495 1497 1500 1503 1505 1505 1499 1487 1478 1479 1480 1484 1486 1487 1489 1491 1494 1504 1504 1502 1501 1501 1501 1502 1503 1505 1507 1509 1511 1513 1515 1517 1519 1521 1522 1524 1526 1527 1529 1530 1531 1533 1534 1535 1536 1537 1539 1540 1541
1494 1498 1501 1502 1504 1504 1494 1483 1481 1481 1484 1486 1488 1490 1491 1493 1496 1500 1500 1501 1501 1501 1501 1502 1503 1505 1506 1508 1510 1512 1515 1517 1519 1521 1522 1524 1526 1527 1529 1530 1532 1533 1535 1536 1537 1539 1540 1541 1542
1495 1498 1501 1499 1498 1495 1487 1479 1481 1483 1486 1489 1491 1493 1494 1496 1497 1499 1500 1500 1501 1501 1501 1502 1503 1504 1506 1508 1510 1512 1514 1516 1518 1520 1522 1524 1526 1527 1529 1531 1532 1534 1535 1537 1538 1539 1541 1542 1543
1497 1499 1499 1498 1494 1486 1482 1481 1482 1485 1488 1491 1493 1495 1496 1498 1498 1499 1499 1499 1500 1500 1501 1502 1503 1504 1505 1507 1509 1511 1513 1515 1517 1519 1521 1523 1525 1527 1529 1531 1532 1534 1536 1537 1538 1540 1541 1543 1544
1497 1498 1498 1496 1490 1484 1481 1482 1484 1488 1490 1492 1494 1494 1496 1498 1498 1498 1498 1498 1499 1499 1500 1501 1502 1503 1504 1506 1508 1510 1512 1514 1516 1518 1520 1522 1524 1526 1528 1530 1532 1534 1535 1537 1539 1540 1542 1543 1544
1498 1495 1497 1495 1487 1482 1481 1484 1486 1489 1491 1492 1494 1494 1496 1497 1497 1497 1497 1498 1498 1498 1499 1499 1500 1501 1503 1504 1506 1508 1510 1512 1514 1517 1519 1521 1523 1525 1527 1529 1531 1533 1535 1537 1538 1540 1542 1543 1544
1497 1494 1493 1488 1485 1483 1483 1485 1488 1490 1492 1493 1493 1494 1495 1496 1496 1496 1496 1496 1497 1497 1497 1497 1498 1499 1501 1502 1504 1506 1508 1510 1512 1515 1517 1519 1522 1524 1526 1528 1530 1532 1534 1536 1538 1540 1541 1543 1544
1495 1494 1490 1487 1485 1484 1484 1487 1490 1492 1492 1493 1494 1494 1494 1495 1494 1494 1494 1494 1495 1495 1495 1495 1496 1497 1498 1499 1501 1503 1505 1507 1510 1512 1515 1517 1520 1522 1524 1527 1529 1531 1533 1535 1537 1539 1541 1542 1544
1495 1497 1492 1487 1485 1485 1486 1489 1491 1492 1493 1493 1493 1493 1493 1493 1493 1493 1492 1492 1492 1492 1493 1493 1493 1494 1495 1497 1498 1500 1502 1505 1507 1509 1512 1515 1517 1520 1522 1525 1527 1530 1532 1534 1536 1538 1540 1541 1543
1494 1495 1490 1487 1486 1487 1488 1490 1492 1492 1492 1492 1492 1492 1492 1491 1491 1491 1491 1490 1490 1490 1490 1490 1490 1491 1492 1493 1495 1497 1499 1501 1504 1506 1509 1512 1515 1517 1520 1522 1525 1528 1530 1532 1534 1536 1538 1540 1542
1492 1492 1489 1489 1489 1490 1490 1491 1492 1492 1491 1491 1491 1491 1490 1490 1490 1489 1488 1488 1488 1487 1486 1487 1487 1488 1489 1490 1491 1493 1495 1497 1500 1503 1505 1508 1512 1514 1517 1519 1522 1525 1528 1530 1532 1534 1536 1538 1540
1491 1489 1489 1490 1491 1492 1492 1492 1492 1491 1491 1490 1490 1489 1488 1488 1488 1487 1486 1485 1484 1483 1482 1483 1483 1484 1485 1486 1488 1490 1492 1494 1496 1499 1502 1505 1508 1511 1513 1516 1519 1522 1524 1527 1529 1532 1534 1536 1538
1489 1489 1489 1490 1491 1492 1492 1491 1491 1489 1489 1488 1488 1487 1486 1485 1484 1484 1483 1482 1481 1480 1479 1479 1479 1480 1481 1482 1484 1486 1488 1489 1492 1495 1498 1501 1504 1506 1510 1513 1515 1518 1521 1524 1526 1529 1532 1534 1536
1488 1489 1489 1490 1490 1490 1490 1489 1490 1487 1487 1486 1485 1484 1483 1482 1481 1480 1479 1478 1477 1476 1475 1475 1475 1476 1477 1478 1480 1482 1484 1485 1488 1491 1493 1496 1500 1502 1506 1509 1512 1515 1518 1520 1523 1526 1529 1531 1533
1488 1490 1489 1487 1488 1488 1490 1488 1486 1485 1485 1485 1484 1483 1481 1480 1478 1477 1476 1475 1473 1472 1472 1471 1471 1472 1473 1474 1476 1478 1480 1481 1484 1487 1489 1492 1495 1499 1502 1505 1508 1511 1514 1517 1520 1523 1526 1528 1530
1488 1489 1490 1485 1485 1487 1492 1489 1483 1483 1483 1483 1482 1481 1480 1478 1477 1475 1474 1472 1470 1469 1468 1468 1468 1468 1469 1470 1472 1474 1475 1477 1479 1482 1485 1488 1491 1495 1498 1501 1504 1507 1510 1513 1516 1519 1522 1525 1526
1487 1488 1486 1485 1484 1485 1487 1486 1482 1481 1482 1481 1480 1479 1478 1476 1475 1473 1471 1469 1467 1466 1465 1464 1464 1464 1465 1466 1468 1469 1471 1473 1475 1478 1480 1483 1487 1490 1493 1497 1500 1503 1506 1509 1512 1515 1518 1520 1522
1488 1486 1484 1485 1484 1484 1485 1483 1480 1479 1480 1479 1478 1477 1476 1474 1472 1470 1468 1466 1464 1463 1461 1461 1461 1461 1461 1462 1464 1465 1467 1468 1471 1473 1476 1478 1482 1486 1489 1492 1496 1499 1502 1504 1507 1510 1513 1516 1518
1485 1485 1485 1483 1482 1483 1483 1480 1478 1477 1478 1478 1477 1476 1475 1473 1471 1468 1466 1463 1461 1460 1459 1458 1457 1457 1458 1458 1459 1461 1462 1464 1466 1469 1471 1474 1477 1481 1484 1487 1491 1494 1496 1499 1502 1505 1508 1511 1514
1486 1487 1485 1483 1481 1483 1481 1478 1474 1474 1476 1476 1476 1475 1473 1471 1469 1466 1464 1461 1459 1458 1456 1455 1454 1454 1454 1454 1455 1457 1459 1460 1462 1465 1466 1469 1473 1476 1479 1482 1486 1489 1492 1494 1497 1500 1502 1505 1508
1486 1487 1486 1486 1484 1480 1480 1477 1472 1472 1473 1474 1474 1474 1472 1471 1468 1465 1462 1460 1457 1456 1454 1452 1451 1451 1450 1450 1451 1453 1455 1456 1458 1460 1462 1465 1468 1471 1474 1478 1481 1484 1486 1489 1491 1495 1497 1499 1502
1489 1485 1486 1487 1490 1487 1483 1486 1472 1471 1472 1472 1473 1472 1471 1469 1467 1465 1462 1459 1456 1454 1452 1450 1449 1448 1447 1447 1448 1449 1450 1451 1453 1456 1458 1461 1464 1466 1469 1473 1476 1478 1481 1483 1487 1490 1492 1494 1497
1488 1486 1487 1488 1489 1489 1482 1485 1475 1470 1472 1472 1472 1471 1470 1468 1466 1464 1461 1458 1455 1452 1450 1448 1446 1445 1444 1444 1445 1445 1446 1448 1450 1452 1454 1457 1459 1462 1464 1468 1470 1473 1476 1478 1481 1484 1486 1488 1491
1488 1488 1486 1486 1489 1491 1477 1481 1478 1473 1472 1471 1471 1471 1470 1468 1466 1463 1460 1457 1454 1452 1449 1446 1444 1442 1441 1441 1442 1443 1444 1445 1447 1449 1450 1453 1455 1458 1460 1463 1466 1468 1470 1473 1475 1477 1480 1483 1485
1490 1493 1493 1492 1492 1484 1471 1476 1476 1470 1469 1470 1470 1470 1469 1468 1465 1462 1459 1457 1454 1451 1448 1446 1443 1441 1440 1440 1440 1440 1441 1442 1443 1444 1446 1448 1451 1453 1456 1458 1460 1463 1465 1467 1470 1472 1474 1476 1479
1491 1493 1497 1496 1488 1480 1473 1476 1473 1468 1469 1470 1470 1470 1469 1467 1465 1463 1460 1457 1454 1451 1448 1445 1442 1440 1439 1438 1438 1438 1439 1440 1440 1441 1442 1444 1446 1448 1451 1454 1455 1458 1460 1462 1465 1466 1468 1471 1473
1491 1492 1492 1497 1490 1488 1475 1468 1470 1468 1470 1470 1470 1469 1468 1467 1465 1463 1460 1457 1454 1451 1448 1445 1442 1439 1437 1436 1436 1437 1437 1438 1437 1438 1439 1440 1442 1444 1447 1449 1450 1453 1455 1457 1459 1461 1463 1465 1467
1492 1491 1494 1496 1493 1486 1473 1468 1473 1472 1471 1470 1470 1469 1468 1467 1465 1463 1460 1457 1455 1452 1448 1445 1442 1439 1438 1436 1436 1435 1435 1435 1435 1435 1435 1437 1438 1440 1442 1444 1446 1448 1450 1452 1454 1455 1457 1458 1460
1492 1492 1492 1492 1491 1492 1484 1479 1468 1469 1469 1470 1470 1469 1468 1467 1465 1463 1460 1458 1455 1452 1448 1445 1442 1440 1438 1437 1436 1434 1434 1433 1433 1433 1433 1433 1434 1436 1437 1439 1441 1442 1444 1446 1448 1449 1451 1452 1453
1489 1489 1491 1496 1492 1488 1488 1484 1467 1467 1468 1469 1469 1469 1468 1467 1465 1463 1460 1458 1455 1451 1448 1445 1443 1441 1439 1437 1435 1434 1433 1432 1431 1430 1430 1430 1430 1431 1432 1434 1435 1437 1439 1440 1442 1443 1445 1446 1447